Regional Weather Roundup
Issued by NWS

Home | Current Version | Previous Version | Text Only | Print | Product List | Glossary On
Versions: 1 2 3 4 5 6 7 8 9 10 11 12 13 14 15 16 17 18 19 20 21 22 23 24 25 26 27 28 29 30 31 32 33 34 35 36 37 38 39 40 41 42 43 44 45 46 47 48 49 50
000
ASUS43 KMPX 071001
RWRMN
WEATHER ROUNDUP FOR MINNESOTA
NATIONAL WEATHER SERVICE TWIN CITIES/CHANHASSEN MN
400 AM CST SUN FEB 07 2016


NOTE: "FAIR" INDICATES FEW OR NO CLOUDS BELOW 12,000 FEET WITH NO
SIGNIFICANT WEATHER AND/OR OBSTRUCTIONS TO VISIBILITY. N/A MEANS
CURRENT SKY AND/OR WEATHER CONDITIONS ARE NOT AVAILABLE.

MNZ060>063-068>070-071100-
   Twin Cities Metro

CITY           SKY/WX    TMP DP  RH WIND       PRES   REMARKS
TWIN CITIES    PTCLDY    31  26  82 SW8       29.64F WCI  23
ST PAUL        CLOUDY    30  26  85 SE3       29.66F
CRYSTAL        CLEAR     32  26  78 SW9       29.63F WCI  24
BLAINE         CLEAR     34  28  80 SW9       29.63F WCI  26
LAKEVILLE      CLOUDY    32  28  86 W10G17    29.65F WCI  24
EDEN PRAIRIE   CLEAR     33  26  75 W9        29.64F WCI  25
SOUTH ST PAUL  CLOUDY    30  26  87 CALM      29.65F
LAKE ELMO      FAIR      30  27  86 S7        29.64F WCI  23
$$
MNZ001>005-007-008-013>017-022>024-027-028-071100-
   Northwest Minnesota

CITY           SKY/WX    TMP DP  RH WIND       PRES   REMARKS
BEMIDJI        LGT SNOW  32  32  99 SW9       29.42F WCI  25
HALLOCK        LGT RAIN  36  34  93 NW13      29.43S
ROSEAU         CLOUDY    36  30  80 W12G18    29.37S
WARROAD        CLOUDY    36  30  80 W9        29.36F
THIEF RVR FALL CLOUDY    36  30  80 W15       29.45R
CROOKSTON      CLOUDY    34  34 100 NW26G33   29.49R WCI  21
FOSSTON        MIX PCPN  30  30 100 W15G23    29.46R WCI  19
DETROIT LAKES  LGT SNOW  34  32  93 W20G30    29.53S WCI  22
MOORHEAD       DRIZZLE   36  30  80 W20G28    29.57S
PARK RAPIDS    LGT SNOW  34  31  88 W15       29.47F FOG     WCI  24
MAHNOMEN       LGT SNOW  32  32  99 W20G31    29.48S WCI  20
$$
MNZ006-009>011-018-025>026-071100-
   North Central Minnesota

CITY           SKY/WX    TMP DP  RH WIND       PRES   REMARKS
BAUDETTE       CLOUDY    35  30  82 SW7       29.36F WCI  29
FLAG ISLAND    CLOUDY    30  28  93 SE3       29.34S
INTL FALLS     CLOUDY    34  31  88 S5        29.39F WCI  30
WASKISH        LGT RAIN  36  34  93 SW12      29.39F
LONGVILLE      CLOUDY    36  32  87 SW9       29.45F
GRAND RAPIDS   CLOUDY    34  30  86 S12       29.45F WCI  25
CRANE LAKE     CLOUDY    32  30  93 S6        29.44F WCI  26
ORR            CLOUDY    32  30  93 CALM      29.40F
COOK           CLOUDY    34  32  93 S5        29.43F WCI  30
WALKER         DRIZZLE   34  32  92 SW10      29.44F WCI  26
$$
MNZ012-019>021-037-071100-
   Northeast Minnesota

CITY           SKY/WX    TMP DP  RH WIND       PRES   REMARKS
DULUTH         MOCLDY    31  28  89 SW13      29.49F WCI  21
ELY            CLOUDY    32  32 100 SW6       29.45F WCI  26
HIBBING        CLOUDY    32  30  92 S7        29.44F WCI  26
EVELETH        CLOUDY    32  32 100 S10       29.47F WCI  24
DULUTH HARBOR  MOCLDY    34  28  80 SW8       29.54F WCI  27
TWO HARBORS    CLOUDY    36  30  80 SW7       29.50F
SILVER BAY     CLOUDY    34  30  86 S7        29.50F FOG     WCI  28
GRAND MARAIS     N/A     34  32  92 S13       29.54F WCI  25
G MARAIS ARPRT MIX PCPN  28  25  86 S5        29.49F VSB 1/4 WCI  23
$$
MNZ029>031-032-039>041-046>048-054>057-064-071100-
   West Central Minnesota

CITY           SKY/WX    TMP DP  RH WIND       PRES   REMARKS
FERGUS FALLS   LGT RAIN  36  32  87 W20       29.62R
WHEATON        CLOUDY    39  28  65 W22G30    29.67S
MORRIS         CLOUDY    37  28  70 W26G39    29.62F
ALEXANDRIA     FLURRIES  35  31  85 W17       29.59S WCI  25
ELBOW LAKE     CLOUDY    35  30  83 NW20G28   29.61S HAZE    WCI  24
WADENA         LGT SNOW  32  30  93 W17       29.52S WCI  21
GLENWOOD       DRIZZLE   36  32  87 W24       29.61S
APPLETON       CLOUDY    39  28  65 W21       29.68R
BENSON         MIX PCPN  37  28  70 NW16      29.65F
ORTONVILLE     CLOUDY    37  27  65 W20G25    29.69R
MADISON        PTCLDY    37  28  70 W22       29.71R
WILLMAR        MOCLDY    37  30  75 W20       29.66F
$$
MNZ033>034-036-042>043-049>051-058-059-071100-
   Central Minnesota

CITY           SKY/WX    TMP DP  RH WIND       PRES   REMARKS
ST CLOUD       CLOUDY    36  32  85 W14       29.59F
SAUK CENTRE    DRIZZLE   35  32  90 W21G26    29.59S WCI  23
PAYNESVILLE    CLOUDY    37  32  82 W21       29.62F
AITKIN         CLOUDY    39  30  70 SW8       29.48F
PINE RIVER     DRIZZLE   36  32  87 W8        29.52F
BRAINERD       CLOUDY    35  31  85 W15G26    29.51F WCI  25
STAPLES        DRIZZLE   34  32  93 W14       29.52F WCI  24
LONG PRAIRIE   CLOUDY    36  32  87 W16G29    29.57F
LITTLE FALLS   CLOUDY    36  32  87 W10       29.56F
LITCHFIELD     CLOUDY    37  34  87 SW7       29.64S
BUFFALO        PTCLDY    31  27  86 CALM      29.63F
MAPLE LAKE     MOCLDY    35  32  87 W7        29.63F WCI  29
$$
MNZ037-044-045-052-053-071100-
   East Central Minnesota

CITY           SKY/WX    TMP DP  RH WIND       PRES   REMARKS
PRINCETON      CLOUDY    34  30  86 SW9       29.59F WCI  26
MORA           MOCLDY    34  32  93 CALM      29.58F
CAMBRIDGE      CLOUDY    34  27  75 S5        29.58F WCI  30
RUSH CITY      CLOUDY    33  30  89 S8        29.59R WCI  26
MOOSE LAKE     CLOUDY    30  28  93 SW7       29.51F WCI  23
HINCKLEY       CLOUDY    34  32  93 S10       29.56S WCI  26
CLOQUET        PTCLDY    30  28  93 S8        29.50F WCI  23
MCGREGOR       CLOUDY    32  30  93 S7        29.50F WCI  26
$$
MNZ071>073-080-081-089-090-097-098-071100-
   Southwest Minnesota

CITY           SKY/WX    TMP DP  RH WIND       PRES   REMARKS
MONTEVIDEO     MOCLDY    37  28  70 NW14G20   29.70S
GRANITE FALLS  PTCLDY    37  31  78 W20       29.72S
CANBY          PTCLDY    39  30  70 W22G28    29.74S
MARSHALL       PTCLDY    36  27  69 W25       29.73S
REDWOOD FALLS  PTCLDY    37  29  72 W22G29    29.70F
OLIVIA         CLEAR     36  30  80 W17       29.67F
PIPESTONE      CLEAR     37  21  52 NW17G25   29.79R
WINDOM         CLEAR     36  28  75 W18       29.74S
WORTHINGTON    CLEAR     34  25  69 W22       29.79R WCI  22
JACKSON        CLEAR     34  27  75 W17G23    29.76S WCI  23
TRACY          PTCLDY    37  29  74 W14G22    29.74S
SLAYTON        PTCLDY    33  29  84 W21       29.77S WCI  21
$$
MNZ065>067-074>077-082>085-091>093-071100-
   South Central Minnesota

CITY           SKY/WX    TMP DP  RH WIND       PRES   REMARKS
MANKATO        CLEAR     37  27  65 W13G18    29.70S
NEW ULM        CLEAR     32  27  80 W15       29.70S WCI  22
ST JAMES       CLEAR     36  28  75 W18       29.73F
FAIRMONT       CLEAR     36  25  64 W16       29.74S
GLENCOE        CLEAR     37  32  83 W8        29.65S
FARIBAULT      PTCLDY    32  27  80 SW8       29.69S WCI  25
OWATONNA       CLOUDY    34  27  75 SW16      29.70S WCI  23
WASECA         CLOUDY    32  28  86 SW13      29.72S WCI  22
ALBERT LEA     CLOUDY    34  28  80 W12       29.72F WCI  25
$$
MNZ078>079-086>088-094>096-071100-
   Southeast Minnesota

CITY           SKY/WX    TMP DP  RH WIND       PRES   REMARKS
ROCHESTER      CLOUDY    32  26  78 SW17      29.69S WCI  21
RED WING       CLOUDY    34  27  75 SW3       29.67F
STANTON        CLOUDY    33  28  79 SW10      29.66S WCI  25
DODGE CENTER   PTCLDY    30  27  86 W16       29.68F WCI  19
WINONA         MOCLDY    36  30  80 SW3       29.72S
AUSTIN         CLOUDY    32  28  86 SW9       29.72S WCI  24
PRESTON        CLOUDY    32  27  81 SW18      29.71S WCI  21
$$
ABBREVIATIONS USED IN REMARKS
   TC - TEMPERATURES IN CELSIUS
  WCI - WIND CHILL INDEX
   HX - HEAT INDEX
  VSB - VISIBILITY
$$



USA.gov is the U.S. government's official web portal to all federal, state and local government web resources and services.